FW8343 Weather Reports


time (UTC)temp
C
wind
direction
speed
KPH
gust
KPH
rain 1hr
cm
rain 24hr
cm
rain mn
cm
humidity
%
barometer
mb
20260508052511 0 0 0.0 0.0 0.00 0.00 0.00 88 1009.5
20260508052015 0 0 0.0 0.0 0.00 0.00 0.00 88 1009.5
20260508051528 0 0 0.0 0.0 0.00 0.00 0.00 87 1009.6
20260508051010 1 0 0.0 0.0 0.00 0.00 0.00 87 1009.5
20260508050511 1 0 0.0 0.0 0.00 0.00 0.00 88 1009.5
20260508050031 1 0 0.0 0.0 0.00 0.00 0.00 86 1009.5
20260508045512 1 0 0.0 0.0 0.00 0.00 0.00 85 1009.5
20260508045011 1 0 0.0 0.0 0.00 0.00 0.00 84 1009.5
20260508044534 1 0 0.0 0.0 0.00 0.00 0.00 84 1009.6
20260508044008 1 0 0.0 0.0 0.00 0.00 0.00 84 1009.6
20260508043514 1 0 0.0 0.0 0.00 0.00 0.00 83 1009.7
20260508043031 1 0 0.0 0.0 0.00 0.00 0.00 81 1009.7
20260508042511 1 0 0.0 0.0 0.00 0.00 0.00 81 1009.7
20260508042012 1 0 0.0 0.0 0.00 0.00 0.00 80 1009.8
20260508041530 1 0 0.0 0.0 0.00 0.00 0.00 79 1009.8
20260508041011 2 0 0.0 0.0 0.00 0.00 0.00 79 1009.7
20260508040516 2 0 0.0 0.0 0.00 0.00 0.00 81 1009.7
20260508040031 2 0 0.0 0.0 0.00 0.00 0.00 81 1009.8
20260508035509 2 0 0.0 0.0 0.00 0.00 0.00 80 1009.7
20260508035015 2 0 0.0 0.0 0.00 0.00 0.00 80 1009.7
20260508034530 2 0 0.0 0.0 0.00 0.00 0.00 80 1009.7
20260508034010 3 0 0.0 0.0 0.00 0.00 0.00 80 1009.7
20260508033518 3 0 0.0 0.0 0.00 0.00 0.00 80 1009.7
20260508033027 3 0 0.0 0.0 0.00 0.00 0.00 77 1009.7
20260508032512 3 0 0.0 0.0 0.00 0.00 0.00 77 1009.7
20260508032017 3 0 0.0 0.0 0.00 0.00 0.00 76 1009.6
20260508031531 3 0 0.0 0.0 0.00 0.00 0.00 73 1009.8
20260508031011 3 0 0.0 0.0 0.00 0.00 0.00 72 1009.7
20260508030515 3 0 0.0 0.0 0.00 0.00 0.00 73 1009.7
20260508030030 3 0 0.0 0.0 0.00 0.00 0.00 75 1009.8
20260508025511 3 0 0.0 0.0 0.00 0.00 0.00 76 1009.7
20260508025015 4 0 0.0 0.0 0.00 0.00 0.00 75 1009.7
20260508024537 4 0 0.0 0.0 0.00 0.00 0.00 74 1009.7
20260508024010 4 0 0.0 0.0 0.00 0.00 0.00 73 1009.7
20260508023513 4 0 0.0 0.0 0.00 0.00 0.00 71 1009.7
20260508023029 4 0 0.0 0.0 0.00 0.00 0.00 68 1009.7
20260508022514 5 0 0.0 0.0 0.00 0.00 0.00 63 1009.7
20260508022016 5 0 0.0 0.0 0.00 0.00 0.00 62 1009.7
20260508021533 5 0 0.0 0.0 0.00 0.00 0.00 63 1009.8
20260508021016 5 0 0.0 0.0 0.00 0.00 0.00 64 1009.7
20260508020513 5 0 0.0 0.0 0.00 0.00 0.00 64 1009.7
20260508020029 5 0 0.0 0.0 0.00 0.00 0.00 65 1009.7
20260508015510 6 0 0.0 0.0 0.00 0.00 0.00 64 1009.6
20260508015014 6 0 0.0 0.0 0.00 0.00 0.00 61 1009.5
20260508014530 6 0 0.0 0.0 0.00 0.00 0.00 59 1009.5
20260508014011 6 0 0.0 0.0 0.00 0.00 0.00 56 1009.4
20260508013517 6 0 0.0 0.0 0.00 0.00 0.00 56 1009.4
20260508013040 6 0 0.0 1.6 0.00 0.00 0.00 55 1009.5
20260508012508 6 0 0.0 1.6 0.00 0.00 0.00 55 1009.5
20260508012011 7 321 0.0 0.0 0.00 0.00 0.00 56 1009.4
20260508011533 7 0 0.0 0.0 0.00 0.00 0.00 55 1009.4
20260508011009 7 0 0.0 1.6 0.00 0.00 0.00 55 1009.5
20260508010512 7 0 0.0 1.6 0.00 0.00 0.00 54 1009.3
20260508010033 7 0 0.0 4.8 0.00 0.00 0.00 54 1009.4
20260508005513 7 0 0.0 4.8 0.00 0.00 0.00 54 1009.4
20260508005017 7 0 0.0 3.2 0.00 0.00 0.00 53 1009.4
20260508004536 8 321 0.0 3.2 0.00 0.00 0.00 53 1009.3
20260508004013 8 0 0.0 3.2 0.00 0.00 0.00 52 1009.3
20260508003515 8 0 0.0 4.8 0.00 0.00 0.00 53 1009.3
20260508003032 8 321 0.0 6.4 0.00 0.00 0.00 52 1009.3
20260508002511 8 0 1.6 9.7 0.00 0.00 0.00 51 1009.3
20260508002013 8 256 3.2 9.7 0.00 0.00 0.00 53 1009.3
20260508001530 8 0 1.6 9.7 0.00 0.00 0.00 51 1009.3
20260508001009 8 272 3.2 9.7 0.00 0.00 0.00 52 1009.3
20260508000513 8 284 1.6 6.4 0.00 0.00 0.00 53 1009.3
20260508000032 8 265 1.6 6.4 0.00 0.00 0.00 54 1009.3
20260507235507 8 269 1.6 4.8 0.00 0.00 0.00 54 1009.3
20260507235008 8 267 1.6 4.8 0.00 0.00 0.00 54 1009.3
20260507234528 8 0 0.0 11.3 0.00 0.00 0.00 55 1009.3
20260507234008 8 269 1.6 11.3 0.00 0.00 0.00 54 1009.3
20260507233510 8 266 4.8 11.3 0.00 0.00 0.00 52 1009.3
20260507233036 8 236 4.8 12.9 0.00 0.00 0.00 52 1009.4
20260507232511 8 278 4.8 16.1 0.00 0.00 0.00 54 1009.5
20260507232017 8 228 6.4 16.1 0.00 0.00 0.00 55 1009.5
20260507231529 8 284 4.8 22.5 0.00 0.00 0.00 54 1009.6
20260507231016 8 272 11.3 22.5 0.00 0.00 0.00 51 1009.7
20260507230510 9 336 8.0 19.3 0.00 0.00 0.00 49 1009.4
20260507230030 9 284 3.2 14.5 0.00 0.00 0.00 45 1009.2
20260507225510 10 270 4.8 14.5 0.00 0.00 0.00 46 1009.1
20260507225011 10 257 1.6 6.4 0.00 0.00 0.00 46 1009.1
20260507224534 9 313 1.6 6.4 0.00 0.00 0.00 45 1009.1
20260507224007 9 301 1.6 16.1 0.00 0.00 0.00 47 1009.1
20260507223507 9 289 6.4 16.1 0.00 0.00 0.00 44 1009.2
20260507223031 10 260 1.6 14.5 0.00 0.00 0.00 46 1009.2
20260507222511 10 267 3.2 17.7 0.00 0.00 0.00 44 1009.2
20260507222011 10 286 4.8 17.7 0.00 0.00 0.00 44 1009.2
20260507221528 9 249 8.0 17.7 0.00 0.00 0.00 43 1009.4
20260507221012 9 266 4.8 12.9 0.00 0.00 0.00 43 1009.2
20260507220510 10 281 3.2 14.5 0.00 0.00 0.00 42 1009.2
20260507220029 10 259 4.8 14.5 0.00 0.00 0.00 44 1009.2
20260507215509 10 252 3.2 16.1 0.00 0.00 0.00 45 1009.2
20260507215013 9 240 6.4 16.1 0.00 0.00 0.00 42 1009.1
20260507214531 10 261 1.6 16.1 0.00 0.00 0.00 44 1009.2
20260507214013 10 324 4.8 16.1 0.00 0.00 0.00 43 1009.3
20260507213516 10 281 8.0 16.1 0.00 0.00 0.00 42 1009.2
20260507213032 9 275 4.8 14.5 0.00 0.00 0.00 42 1009.2
20260507212510 9 284 3.2 22.5 0.00 0.00 0.00 46 1009.3
20260507212012 9 230 3.2 22.5 0.00 0.00 0.00 44 1009.3
20260507211532 9 223 8.0 20.9 0.00 0.00 0.00 45 1009.5
20260507211008 9 263 6.4 20.9 0.00 0.00 0.00 44 1009.4
20260507210509 9 262 9.7 24.1 0.00 0.00 0.00 45 1009.3
20260507210047 9 229 8.0 24.1 0.00 0.00 0.00 42 1009.3
20260507205508 10 280 6.4 16.1 0.00 0.00 0.00 39 1009.2
20260507205011 10 221 6.4 16.1 0.00 0.00 0.00 42 1009.3
20260507204530 10 251 6.4 16.1 0.00 0.00 0.00 38 1009.3
20260507204008 10 252 3.2 17.7 0.00 0.00 0.00 38 1009.2
20260507203512 10 259 6.4 17.7 0.00 0.00 0.00 40 1009.4
20260507203030 10 281 8.0 16.1 0.00 0.00 0.00 39 1009.3
20260507202511 10 259 6.4 16.1 0.00 0.00 0.00 42 1009.4
20260507202013 10 303 4.8 11.3 0.00 0.00 0.00 42 1009.3
20260507201529 10 286 1.6 12.9 0.00 0.00 0.00 43 1009.5
20260507201009 10 290 4.8 14.5 0.00 0.00 0.00 41 1009.6
20260507200512 9 257 3.2 14.5 0.00 0.00 0.00 43 1009.7
20260507200036 9 277 6.4 19.3 0.00 0.00 0.00 40 1009.7
20260507195512 9 254 3.2 19.3 0.00 0.00 0.00 42 1009.8
20260507195010 9 275 4.8 19.3 0.00 0.00 0.00 42 1009.9
20260507194547 8 259 4.8 16.1 0.00 0.00 0.00 42 1010.0
20260507194010 9 233 6.4 16.1 0.00 0.00 0.00 40 1010.0
20260507193510 9 244 8.0 16.1 0.00 0.00 0.00 38 1010.0
20260507193033 9 267 3.2 9.7 0.00 0.00 0.00 40 1009.9
20260507192510 10 302 1.6 14.5 0.00 0.00 0.00 40 1010.1
20260507192011 9 347 4.8 14.5 0.00 0.00 0.00 40 1010.1
20260507191530 9 229 3.2 22.5 0.00 0.00 0.00 42 1010.0
20260507191008 9 281 8.0 22.5 0.00 0.00 0.00 42 1010.0
20260507190510 9 257 3.2 22.5 0.00 0.00 0.00 43 1010.0
20260507190030 9 288 3.2 22.5 0.00 0.00 0.00 41 1010.0
20260507185509 10 193 8.0 17.7 0.00 0.00 0.00 37 1010.1
20260507185015 10 261 4.8 11.3 0.00 0.00 0.00 40 1010.2
20260507184531 9 247 3.2 14.5 0.00 0.00 0.00 40 1010.1
20260507184010 9 232 3.2 14.5 0.00 0.00 0.00 44 1010.2
20260507183514 8 306 6.4 14.5 0.00 0.00 0.00 42 1010.4
20260507183035 8 288 4.8 17.7 0.00 0.00 0.00 41 1010.3
20260507182510 8 254 3.2 17.7 0.00 0.00 0.00 41 1010.3
20260507182016 9 296 6.4 16.1 0.00 0.00 0.00 39 1010.3
20260507181529 10 0 1.6 16.1 0.00 0.00 0.00 37 1010.4
20260507181015 10 236 6.4 19.3 0.00 0.00 0.00 41 1010.5
20260507180511 9 280 6.4 19.3 0.00 0.00 0.00 43 1010.5
20260507180031 8 287 8.0 19.3 0.00 0.00 0.00 42 1010.6
20260507175507 8 290 4.8 14.5 0.00 0.00 0.00 41 1010.7
20260507175009 8 271 4.8 11.3 0.00 0.00 0.00 41 1010.6
20260507174536 8 230 1.6 12.9 0.00 0.00 0.00 44 1010.7
20260507174009 8 225 3.2 24.1 0.00 0.00 0.00 44 1010.8
20260507173509 8 259 6.4 24.1 0.00 0.00 0.00 44 1010.9
20260507173036 8 273 4.8 14.5 0.00 0.00 0.00 44 1011.0
20260507172509 8 215 1.6 11.3 0.00 0.00 0.00 46 1010.9
20260507172008 8 206 3.2 11.3 0.00 0.00 0.00 42 1010.9
20260507171532 8 0 4.8 11.3 0.00 0.00 0.00 44 1011.0
20260507171011 8 266 3.2 11.3 0.00 0.00 0.00 46 1011.1
20260507170510 7 269 4.8 14.5 0.00 0.00 0.00 47 1011.0
20260507170035 7 273 6.4 14.5 0.00 0.00 0.00 45 1011.1
20260507165510 7 278 4.8 11.3 0.00 0.00 0.00 44 1011.2
20260507165011 7 0 1.6 12.9 0.00 0.00 0.00 48 1011.3
20260507164531 7 0 4.8 12.9 0.00 0.00 0.00 46 1011.3
20260507164013 7 289 3.2 11.3 0.00 0.00 0.00 48 1011.3
20260507163513 7 230 3.2 12.9 0.00 0.00 0.00 49 1011.3
20260507163031 7 0 3.2 14.5 0.00 0.00 0.00 45 1011.3
20260507162509 7 229 4.8 14.5 0.00 0.00 0.00 47 1011.4
20260507162014 7 263 4.8 14.5 0.00 0.00 0.00 46 1011.4
20260507161534 7 280 3.2 12.9 0.00 0.00 0.00 48 1011.4
20260507161009 7 281 4.8 11.3 0.00 0.00 0.00 48 1011.4
20260507160509 7 263 3.2 16.1 0.00 0.00 0.00 49 1011.6
20260507160030 7 261 3.2 16.1 0.00 0.00 0.00 49 1011.5
20260507155513 7 279 4.8 16.1 0.00 0.00 0.00 48 1011.5
20260507155015 7 229 4.8 16.1 0.00 0.00 0.00 48 1011.5
20260507154535 7 263 3.2 12.9 0.00 0.00 0.00 48 1011.6
20260507154012 7 250 1.6 9.7 0.00 0.00 0.00 49 1011.6
20260507153512 7 259 4.8 9.7 0.00 0.00 0.00 47 1011.5
20260507153039 7 267 1.6 12.9 0.00 0.00 0.00 50 1011.6
20260507152512 7 0 0.0 12.9 0.00 0.00 0.00 50 1011.5
20260507152011 7 217 1.6 12.9 0.00 0.00 0.00 51 1011.4
20260507151532 6 0 3.2 12.9 0.00 0.00 0.00 48 1011.6
20260507151011 7 262 3.2 12.9 0.00 0.00 0.00 51 1011.7
20260507150510 7 309 3.2 14.5 0.00 0.00 0.00 49 1011.7
20260507150031 6 254 3.2 14.5 0.00 0.00 0.00 55 1011.8
20260507145509 6 268 4.8 14.5 0.00 0.00 0.00 53 1011.8
20260507145011 7 0 1.6 6.4 0.00 0.00 0.00 54 1011.7
20260507144530 7 218 1.6 9.7 0.00 0.00 0.00 53 1011.8
20260507144008 6 279 1.6 9.7 0.00 0.00 0.00 55 1011.9
20260507143513 6 254 1.6 14.5 0.00 0.00 0.00 54 1012.0
20260507143028 6 265 1.6 14.5 0.00 0.00 0.00 54 1011.8
20260507142512 6 225 4.8 14.5 0.00 0.00 0.00 53 1011.9
20260507142010 6 232 3.2 14.5 0.00 0.00 0.00 57 1012.0
20260507141530 6 230 1.6 14.5 0.00 0.00 0.00 58 1012.0
20260507141011 6 256 6.4 14.5 0.00 0.00 0.00 55 1012.2
20260507140511 5 273 4.8 16.1 0.00 0.00 0.00 59 1012.2
20260507140032 5 244 4.8 16.1 0.00 0.00 0.00 57 1012.2
20260507135509 5 245 3.2 14.5 0.00 0.00 0.00 59 1012.2
20260507135016 5 236 3.2 14.5 0.00 0.00 0.00 59 1012.2
20260507134531 5 263 3.2 14.5 0.00 0.00 0.00 58 1012.2
20260507134010 5 0 3.2 14.5 0.00 0.00 0.00 58 1012.2
20260507133513 5 0 1.6 12.9 0.00 0.00 0.00 62 1012.2
20260507133034 5 282 3.2 12.9 0.00 0.00 0.00 61 1012.3
20260507132513 5 0 3.2 12.9 0.00 0.00 0.00 63 1012.3
20260507132011 5 257 4.8 12.9 0.00 0.00 0.00 63 1012.4
20260507131530 4 220 3.2 12.9 0.00 0.00 0.00 64 1012.3
20260507131012 4 284 4.8 9.7 0.00 0.00 0.00 64 1012.3
20260507130515 4 229 3.2 11.3 0.00 0.00 0.00 67 1012.4
20260507130039 3 257 3.2 11.3 0.00 0.00 0.00 67 1012.4
20260507125513 3 0 1.6 11.3 0.00 0.00 0.00 68 1012.5
20260507125012 3 350 1.6 11.3 0.00 0.00 0.00 68 1012.5
20260507124531 3 250 4.8 11.3 0.00 0.00 0.00 69 1012.4
20260507124011 3 274 1.6 9.7 0.00 0.00 0.00 71 1012.5
20260507123515 2 272 1.6 9.7 0.00 0.00 0.00 71 1012.4
20260507123030 2 272 3.2 9.7 0.00 0.00 0.00 71 1012.4
20260507122510 2 223 3.2 9.7 0.00 0.00 0.00 73 1012.5
20260507122014 2 224 3.2 9.7 0.00 0.00 0.00 73 1012.5
20260507121531 2 215 1.6 8.0 0.00 0.00 0.00 73 1012.4
20260507121012 2 205 1.6 4.8 0.00 0.00 0.00 76 1012.4
20260507120512 1 269 1.6 4.8 0.00 0.00 0.00 74 1012.4
20260507120030 1 269 0.0 4.8 0.00 0.00 0.00 74 1012.4
20260507115509 1 269 0.0 4.8 0.00 0.00 0.00 74 1012.4
20260507115016 1 269 0.0 6.4 0.00 0.00 0.00 73 1012.4
20260507114536 1 0 0.0 6.4 0.00 0.00 0.00 74 1012.3
20260507114018 2 269 0.0 6.4 0.00 0.00 0.00 73 1012.3
20260507113510 2 0 1.6 6.4 0.00 0.00 0.00 73 1012.3
20260507113030 2 0 1.6 4.8 0.00 0.00 0.00 73 1012.3
20260507112514 2 0 0.0 6.4 0.00 0.00 0.00 74 1012.2
20260507112013 2 223 1.6 8.0 0.00 0.00 0.00 73 1012.2
20260507111532 2 223 3.2 8.0 0.00 0.00 0.00 74 1012.2
20260507111010 2 221 1.6 8.0 0.00 0.00 0.00 74 1012.2
20260507110510 2 221 1.6 8.0 0.00 0.00 0.00 77 1012.2
20260507110030 1 221 1.6 8.0 0.00 0.00 0.00 74 1012.2
20260507105511 1 0 1.6 4.8 0.00 0.00 0.00 73 1012.3
20260507105012 1 285 1.6 4.8 0.00 0.00 0.00 73 1012.2
20260507104531 1 285 1.6 4.8 0.00 0.00 0.00 73 1012.2
20260507104011 1 285 1.6 4.8 0.00 0.00 0.00 73 1012.2
20260507103510 1 285 1.6 4.8 0.00 0.00 0.00 73 1012.2
20260507103033 1 0 1.6 4.8 0.00 0.00 0.00 73 1012.1
20260507102515 1 285 1.6 4.8 0.00 0.00 0.00 73 1012.1
20260507102015 1 0 0.0 4.8 0.00 0.00 0.00 73 1012.1
20260507101532 1 285 0.0 6.4 0.00 0.00 0.00 73 1012.1
20260507101009 1 285 1.6 6.4 0.00 0.00 0.00 73 1012.0
20260507100509 1 0 0.0 3.2 0.00 0.00 0.00 73 1012.1
20260507100034 1 285 0.0 4.8 0.00 0.00 0.00 72 1012.1
20260507095510 1 0 0.0 4.8 0.00 0.00 0.00 72 1012.1
20260507095010 1 0 0.0 4.8 0.00 0.00 0.00 72 1012.1
20260507094529 1 285 0.0 3.2 0.00 0.00 0.00 72 1012.1
20260507094010 1 0 0.0 3.2 0.00 0.00 0.00 72 1012.2
20260507093516 1 0 0.0 3.2 0.00 0.00 0.00 72 1012.2
20260507093029 1 285 0.0 3.2 0.00 0.00 0.00 72 1012.1
20260507092518 1 0 0.0 3.2 0.00 0.00 0.00 72 1012.1
20260507092013 1 0 0.0 3.2 0.00 0.00 0.00 72 1012.1
20260507091529 1 285 0.0 3.2 0.00 0.00 0.00 72 1012.1
20260507091011 2 0 0.0 4.8 0.00 0.00 0.00 72 1012.1
20260507090512 2 0 0.0 4.8 0.00 0.00 0.00 71 1012.2
20260507090030 2 0 0.0 3.2 0.00 0.00 0.00 71 1012.2
20260507085512 2 0 0.0 3.2 0.00 0.00 0.00 72 1012.2
20260507085012 2 0 0.0 4.8 0.00 0.00 0.00 71 1012.3
20260507084532 2 0 0.0 4.8 0.00 0.00 0.00 71 1012.3
20260507084009 2 0 0.0 4.8 0.00 0.00 0.00 71 1012.4
20260507083513 2 0 0.0 3.2 0.00 0.00 0.00 71 1012.4
20260507083030 2 0 0.0 3.2 0.00 0.00 0.00 71 1012.4
20260507082510 2 0 0.0 3.2 0.00 0.00 0.00 71 1012.3
20260507082014 2 0 0.0 3.2 0.00 0.00 0.00 71 1012.3
20260507081532 2 285 0.0 3.2 0.00 0.00 0.00 71 1012.4
20260507081013 2 0 0.0 3.2 0.00 0.00 0.00 71 1012.4
20260507080512 2 0 0.0 4.8 0.00 0.00 0.00 70 1012.4
20260507080038 2 0 0.0 4.8 0.00 0.00 0.00 71 1012.4
20260507075511 2 0 0.0 3.2 0.00 0.00 0.00 70 1012.4
20260507075011 2 0 0.0 4.8 0.00 0.00 0.00 70 1012.4
20260507074530 2 0 0.0 4.8 0.00 0.00 0.00 70 1012.5
20260507074014 2 285 0.0 6.4 0.00 0.00 0.00 70 1012.5
20260507073512 2 0 0.0 6.4 0.00 0.00 0.00 69 1012.6
20260507073029 2 285 0.0 6.4 0.00 0.00 0.00 70 1012.6
20260507072510 2 0 0.0 4.8 0.00 0.00 0.00 69 1012.7
20260507072012 2 0 0.0 3.2 0.00 0.00 0.00 70 1012.7
20260507071557 2 0 0.0 3.2 0.00 0.00 0.00 70 1012.7
20260507071011 2 0 0.0 3.2 0.00 0.00 0.00 70 1012.8
20260507070514 2 0 0.0 6.4 0.00 0.00 0.00 68 1012.9
20260507070033 2 0 1.6 6.4 0.00 0.00 0.00 68 1012.9
20260507065509 2 0 0.0 4.8 0.00 0.00 0.00 68 1012.8
20260507065013 2 0 0.0 4.8 0.00 0.00 0.00 68 1012.9
20260507064531 2 0 0.0 1.6 0.00 0.00 0.00 68 1012.9
20260507064013 3 0 0.0 4.8 0.00 0.00 0.00 69 1012.9
20260507063514 3 0 0.0 9.7 0.00 0.00 0.00 68 1013.0
20260507063029 3 0 1.6 9.7 0.00 0.00 0.00 69 1013.0
20260507062516 3 225 3.2 9.7 0.00 0.00 0.00 69 1013.0
20260507062016 3 225 3.2 8.0 0.00 0.00 0.00 70 1013.1
20260507061530 2 225 4.8 8.0 0.00 0.00 0.00 69 1013.2
20260507061011 2 225 1.6 8.0 0.00 0.00 0.00 69 1013.2
20260507060511 2 0 0.0 0.0 0.00 0.00 0.00 69 1013.3
20260507060036 2 0 0.0 0.0 0.00 0.00 0.00 68 1013.3
20260507055509 2 0 0.0 0.0 0.00 0.00 0.00 67 1013.3
20260507055014 2 0 0.0 0.0 0.00 0.00 0.00 68 1013.4
20260507054531 2 0 0.0 1.6 0.00 0.00 0.00 67 1013.4
20260507054014 2 0 0.0 3.2 0.00 0.00 0.00 69 1013.5
20260507053512 2 0 0.0 3.2 0.00 0.00 0.00 67 1013.4
20260507053042 2 273 0.0 3.2 0.00 0.00 0.00 67 1013.5